Location: Newark
(3.0500°N, 36.0167°E)
Time: 18:26:38
(UTC+00:00)

A-11 Canister half - Pass Details

Date: 26 August 2019
Orbit: 1527 x 1682 km, 47.3° (Epoch: 15 October)

Event Time Altitude Azimuth Distance (km) Brightness Sun altitude
Rises 04:56:58 0° 212° (SSW) 4,698 11.2 20.0°
Reaches altitude 10° 05:00:02 10° 208° (SSW) 3,728 10.7 20.7°
Maximum altitude 05:09:20 63° 129° (SE) 1,737 10.0 23.0°
Drops below altitude 10° 05:18:55 10° 50° (NE) 3,838 12.2 25.4°
Sets 05:22:07 0° 47° (NE) 4,844 12.5 26.2°
